Time,TemperatureF,DewpointF,PressureIn,WindDirection,WindDirectionDegrees,WindSpeedMPH,WindSpeedGustMPH,Humidity,HourlyPrecipIn,Conditions,Clouds,dailyrainin,SoftwareType,DateUTC
2013-08-11 00:00:00,64.3,59.4,30.11,North,360,0.0,0.0,84,0.00,OVC,,0.00,WeatherDisplay:10.37,2013-08-11 04:00:00,
2013-08-11 00:01:00,64.3,59.4,30.11,North,360,0.0,0.0,84,0.00,OVC,,0.00,WeatherDisplay:10.37,2013-08-11 04:01:00,
2013-08-11 00:06:00,64.2,59.6,30.11,North,360,0.0,0.0,85,0.00,OVC,,0.00,WeatherDisplay:10.37,2013-08-11 04:06:00,
2013-08-11 00:11:00,64.1,59.5,30.12,North,360,0.0,0.0,85,0.00,OVC,,0.00,WeatherDisplay:10.37,2013-08-11 04:11:00,
2013-08-11 00:16:00,64.1,59.5,30.12,North,360,0.0,0.0,85,0.00,OVC,,0.00,WeatherDisplay:10.37,2013-08-11 04:16:00,
2013-08-11 00:21:00,64.1,59.8,30.11,North,360,0.0,0.0,86,0.00,OVC,,0.00,WeatherDisplay:10.37,2013-08-11 04:21:00,
2013-08-11 00:26:00,64.2,59.9,30.11,North,360,0.0,0.0,86,0.00,OVC,,0.00,WeatherDisplay:10.37,2013-08-11 04:26:00,
2013-08-11 00:31:00,64.2,59.6,30.11,North,360,0.0,0.0,85,0.00,OVC,,0.00,WeatherDisplay:10.37,2013-08-11 04:31:00,
2013-08-11 00:36:00,64.3,59.7,30.11,North,360,0.0,0.0,85,0.00,OVC,,0.00,WeatherDisplay:10.37,2013-08-11 04:36:00,
2013-08-11 00:41:00,64.4,60.1,30.12,North,360,0.0,0.0,86,0.00,OVC,,0.00,WeatherDisplay:10.37,2013-08-11 04:41:00,
2013-08-11 00:46:00,64.4,60.1,30.11,North,360,0.0,0.0,86,0.00,OVC,,0.00,WeatherDisplay:10.37,2013-08-11 04:46:00,
2013-08-11 00:51:00,64.3,60.3,30.11,North,360,0.0,0.0,87,0.00,OVC,,0.00,WeatherDisplay:10.37,2013-08-11 04:51:00,
2013-08-11 00:56:00,64.2,60.2,30.11,North,360,0.0,0.0,87,0.00,OVC,,0.00,WeatherDisplay:10.37,2013-08-11 04:56:00,
2013-08-11 01:01:00,64.1,60.5,30.12,North,360,0.0,0.0,88,0.00,OVC,,0.00,WeatherDisplay:10.37,2013-08-11 05:01:00,
2013-08-11 01:06:00,64.0,60.7,30.11,North,360,0.0,0.0,89,0.00,OVC,,0.00,WeatherDisplay:10.37,2013-08-11 05:06:00,
2013-08-11 01:12:00,63.8,60.5,30.11,North,360,0.0,0.0,89,0.00,OVC,,0.00,WeatherDisplay:10.37,2013-08-11 05:12:00,
2013-08-11 01:17:00,63.7,60.4,30.11,North,360,0.0,0.0,89,0.00,OVC,,0.00,WeatherDisplay:10.37,2013-08-11 05:17:00,
2013-08-11 01:22:00,63.6,60.6,30.11,North,360,0.0,0.0,90,0.00,OVC,,0.00,WeatherDisplay:10.37,2013-08-11 05:22:00,
2013-08-11 01:27:00,63.4,60.4,30.11,North,360,0.0,0.0,90,0.00,OVC,,0.00,WeatherDisplay:10.37,2013-08-11 05:27:00,
2013-08-11 01:32:00,63.4,60.7,30.11,North,360,0.0,0.0,91,0.00,OVC,,0.00,WeatherDisplay:10.37,2013-08-11 05:32:00,
2013-08-11 01:38:00,63.4,60.7,30.11,North,360,0.0,0.0,91,0.00,OVC,,0.00,WeatherDisplay:10.37,2013-08-11 05:38:00,
2013-08-11 01:45:00,63.4,61.0,30.11,North,360,0.0,0.0,92,0.00,OVC,,0.00,WeatherDisplay:10.37,2013-08-11 05:45:00,
2013-08-11 01:50:00,63.4,61.0,30.11,North,360,0.0,0.0,92,0.00,OVC,OVC,0.00,WeatherDisplay:10.37,2013-08-11 05:50:00,
2013-08-11 01:55:00,63.4,61.0,30.11,North,360,0.0,0.0,92,0.00,OVC,,0.00,WeatherDisplay:10.37,2013-08-11 05:55:00,
2013-08-11 02:00:00,63.3,60.9,30.11,North,360,0.0,0.0,92,0.00,OVC,,0.00,WeatherDisplay:10.37,2013-08-11 06:00:00,
2013-08-11 02:05:00,63.3,60.9,30.11,North,360,0.0,0.0,92,0.00,OVC,,0.00,WeatherDisplay:10.37,2013-08-11 06:05:00,
2013-08-11 02:10:00,63.2,60.8,30.11,North,360,0.0,0.0,92,0.00,OVC,,0.00,WeatherDisplay:10.37,2013-08-11 06:10:00,
2013-08-11 02:16:00,63.1,60.7,30.11,North,360,0.0,0.0,92,0.00,OVC,,0.00,WeatherDisplay:10.37,2013-08-11 06:16:00,
2013-08-11 02:21:00,63.0,60.6,30.11,North,360,0.0,0.0,92,0.00,OVC,,0.00,WeatherDisplay:10.37,2013-08-11 06:21:00,
2013-08-11 02:27:00,63.0,60.6,30.11,North,360,0.0,0.0,92,0.00,OVC,,0.00,WeatherDisplay:10.37,2013-08-11 06:27:00,
2013-08-11 02:32:00,62.9,60.5,30.11,North,360,0.0,0.0,92,0.00,OVC,,0.00,WeatherDisplay:10.37,2013-08-11 06:32:00,
2013-08-11 02:37:00,62.8,60.4,30.12,North,360,0.0,0.0,92,0.00,OVC,,0.00,WeatherDisplay:10.37,2013-08-11 06:37:00,
2013-08-11 02:42:00,62.7,60.6,30.11,North,360,0.0,0.0,93,0.00,OVC,,0.00,WeatherDisplay:10.37,2013-08-11 06:42:00,
2013-08-11 02:47:00,62.6,60.5,30.11,North,360,0.0,0.0,93,0.00,OVC,,0.00,WeatherDisplay:10.37,2013-08-11 06:47:00,
2013-08-11 02:53:00,62.5,60.4,30.11,North,360,0.0,0.0,93,0.00,OVC,,0.00,WeatherDisplay:10.37,2013-08-11 06:53:00,
2013-08-11 02:58:00,62.4,60.3,30.12,North,360,0.0,0.0,93,0.00,OVC,,0.00,WeatherDisplay:10.37,2013-08-11 06:58:00,
2013-08-11 03:03:00,62.4,60.3,30.12,North,360,0.0,0.0,93,0.00,OVC,,0.00,WeatherDisplay:10.37,2013-08-11 07:03:00,
2013-08-11 03:08:00,62.3,60.6,30.11,North,360,0.0,0.0,94,0.00,OVC,,0.00,WeatherDisplay:10.37,2013-08-11 07:08:00,
2013-08-11 03:13:00,62.4,60.7,30.11,North,360,0.0,0.0,94,0.00,OVC,,0.00,WeatherDisplay:10.37,2013-08-11 07:13:00,
2013-08-11 03:19:00,62.4,60.7,30.11,North,360,0.0,0.0,94,0.00,OVC,,0.00,WeatherDisplay:10.37,2013-08-11 07:19:00,
2013-08-11 03:24:00,62.3,60.6,30.11,North,360,0.0,0.0,94,0.00,OVC,,0.00,WeatherDisplay:10.37,2013-08-11 07:24:00,
2013-08-11 03:29:00,62.3,60.6,30.11,North,360,0.0,0.0,94,0.00,OVC,,0.00,WeatherDisplay:10.37,2013-08-11 07:29:00,
2013-08-11 03:34:00,62.3,60.6,30.12,North,360,0.0,0.0,94,0.00,OVC,,0.00,WeatherDisplay:10.37,2013-08-11 07:34:00,
2013-08-11 03:40:00,62.3,60.6,30.11,North,360,0.0,0.0,94,0.00,OVC,,0.00,WeatherDisplay:10.37,2013-08-11 07:40:00,
2013-08-11 03:45:00,62.2,60.5,30.12,North,360,0.0,0.0,94,0.00,OVC,,0.00,WeatherDisplay:10.37,2013-08-11 07:45:00,
2013-08-11 03:50:00,62.2,60.5,30.11,North,360,0.0,0.0,94,0.00,OVC,OVC,0.00,WeatherDisplay:10.37,2013-08-11 07:50:00,
2013-08-11 03:55:00,62.2,60.5,30.11,North,360,0.0,0.0,94,0.00,OVC,OVC,0.00,WeatherDisplay:10.37,2013-08-11 07:55:00,
2013-08-11 04:00:00,62.1,60.4,30.11,North,360,0.0,0.0,94,0.00,OVC,OVC,0.00,WeatherDisplay:10.37,2013-08-11 08:00:00,
2013-08-11 04:05:00,62.1,60.3,30.11,North,360,0.0,0.0,94,0.00,OVC,OVC,0.00,WeatherDisplay:10.37,2013-08-11 08:05:00,
2013-08-11 04:10:00,62.0,60.6,30.11,North,360,0.0,0.0,95,0.00,OVC,,0.00,WeatherDisplay:10.37,2013-08-11 08:10:00,
2013-08-11 04:15:00,62.0,60.6,30.11,North,360,0.0,0.0,95,0.00,OVC,,0.00,WeatherDisplay:10.37,2013-08-11 08:15:00,
2013-08-11 04:20:00,61.9,60.5,30.11,North,360,0.0,0.0,95,0.00,OVC,OVC,0.00,WeatherDisplay:10.37,2013-08-11 08:20:00,
2013-08-11 04:25:00,61.9,60.5,30.11,North,360,0.0,0.0,95,0.00,OVC,,0.00,WeatherDisplay:10.37,2013-08-11 08:25:00,
2013-08-11 04:30:00,61.9,60.5,30.11,North,360,0.0,0.0,95,0.00,OVC,,0.00,WeatherDisplay:10.37,2013-08-11 08:30:00,
2013-08-11 04:35:00,61.9,60.5,30.12,North,360,0.0,0.0,95,0.00,OVC,,0.00,WeatherDisplay:10.37,2013-08-11 08:35:00,
2013-08-11 04:41:00,62.0,60.6,30.12,North,360,0.0,0.0,95,0.00,OVC,,0.00,WeatherDisplay:10.37,2013-08-11 08:41:00,
2013-08-11 04:46:00,62.0,60.8,30.11,North,360,0.0,0.0,96,0.00,OVC,,0.00,WeatherDisplay:10.37,2013-08-11 08:46:00,
2013-08-11 04:52:00,62.0,60.6,30.12,North,360,0.0,0.0,95,0.00,OVC,,0.00,WeatherDisplay:10.37,2013-08-11 08:52:00,
2013-08-11 04:57:00,62.0,60.6,30.12,North,360,0.0,0.0,95,0.00,OVC,,0.00,WeatherDisplay:10.37,2013-08-11 08:57:00,
2013-08-11 05:03:00,62.0,60.6,30.12,North,360,0.0,0.0,95,0.00,OVC,,0.00,WeatherDisplay:10.37,2013-08-11 09:03:00,
2013-08-11 05:08:00,62.0,60.6,30.12,North,360,0.0,0.0,95,0.00,OVC,,0.00,WeatherDisplay:10.37,2013-08-11 09:08:00,
2013-08-11 05:13:00,61.9,60.5,30.12,North,360,0.0,0.0,95,0.00,OVC,,0.00,WeatherDisplay:10.37,2013-08-11 09:13:00,
2013-08-11 05:18:00,61.9,60.5,30.12,North,360,0.0,0.0,95,0.00,OVC,,0.00,WeatherDisplay:10.37,2013-08-11 09:18:00,
2013-08-11 05:23:00,62.0,60.6,30.11,North,360,0.0,0.0,95,0.00,OVC,,0.00,WeatherDisplay:10.37,2013-08-11 09:23:00,
2013-08-11 05:29:00,62.0,60.3,30.11,North,360,0.0,0.0,94,0.00,OVC,,0.00,WeatherDisplay:10.37,2013-08-11 09:29:00,
2013-08-11 05:34:00,61.9,60.2,30.11,North,360,0.0,0.0,94,0.00,OVC,,0.00,WeatherDisplay:10.37,2013-08-11 09:34:00,
2013-08-11 05:39:00,61.8,59.8,30.11,North,360,0.0,0.0,93,0.00,OVC,,0.00,WeatherDisplay:10.37,2013-08-11 09:39:00,
2013-08-11 05:44:00,61.7,59.7,30.11,North,360,0.0,0.0,93,0.00,OVC,,0.00,WeatherDisplay:10.37,2013-08-11 09:44:00,
2013-08-11 05:49:00,61.5,59.2,30.11,North,360,0.0,0.0,92,0.00,OVC,,0.00,WeatherDisplay:10.37,2013-08-11 09:49:00,
2013-08-11 05:55:00,61.3,59.0,30.11,North,360,0.0,0.0,92,0.00,OVC,,0.00,WeatherDisplay:10.37,2013-08-11 09:55:00,
2013-08-11 06:00:00,61.2,59.2,30.11,North,360,0.0,0.0,93,0.00,OVC,OVC,0.00,WeatherDisplay:10.37,2013-08-11 10:00:00,
2013-08-11 06:05:00,61.1,59.1,30.12,North,360,0.0,0.0,93,0.00,BKN,BKN,0.00,WeatherDisplay:10.37,2013-08-11 10:05:00,
2013-08-11 06:10:00,61.0,59.3,30.12,North,360,0.0,0.0,94,0.00,BKN,,0.00,WeatherDisplay:10.37,2013-08-11 10:10:00,
2013-08-11 06:15:00,60.9,59.2,30.12,North,360,0.0,0.0,94,0.00,BKN,,0.00,WeatherDisplay:10.37,2013-08-11 10:15:00,
2013-08-11 06:20:00,60.8,59.1,30.12,North,360,0.0,0.0,94,0.00,BKN,BKN,0.00,WeatherDisplay:10.37,2013-08-11 10:20:00,
2013-08-11 06:25:00,60.8,59.1,30.12,North,360,0.0,0.0,94,0.00,BKN,,0.00,WeatherDisplay:10.37,2013-08-11 10:25:00,
2013-08-11 06:31:00,60.7,59.0,30.12,North,360,0.0,0.0,94,0.00,BKN,,0.00,WeatherDisplay:10.37,2013-08-11 10:31:00,
2013-08-11 06:36:00,60.7,59.3,30.12,North,360,0.0,0.0,95,0.00,BKN,,0.00,WeatherDisplay:10.37,2013-08-11 10:36:00,
2013-08-11 06:41:00,60.7,59.3,30.12,North,360,0.0,0.0,95,0.00,BKN,,0.00,WeatherDisplay:10.37,2013-08-11 10:41:00,
2013-08-11 06:46:00,60.7,59.3,30.12,North,360,0.0,0.0,95,0.00,BKN,,0.00,WeatherDisplay:10.37,2013-08-11 10:46:00,
2013-08-11 06:51:00,60.7,59.3,30.12,North,360,0.0,0.0,95,0.00,BKN,,0.00,WeatherDisplay:10.37,2013-08-11 10:51:00,
2013-08-11 06:57:00,60.7,59.3,30.12,North,360,0.0,0.0,95,0.00,BKN,,0.00,WeatherDisplay:10.37,2013-08-11 10:57:00,
2013-08-11 07:02:00,60.7,59.3,30.13,North,360,0.0,0.0,95,0.00,BKN,,0.00,WeatherDisplay:10.37,2013-08-11 11:02:00,
2013-08-11 07:07:00,60.7,59.3,30.13,North,360,0.0,0.0,95,0.00,BKN,,0.00,WeatherDisplay:10.37,2013-08-11 11:07:00,
2013-08-11 07:12:00,60.7,59.3,30.13,North,360,0.0,0.0,95,0.00,BKN,,0.00,WeatherDisplay:10.37,2013-08-11 11:12:00,
2013-08-11 07:18:00,60.8,59.7,30.13,North,360,0.0,0.0,96,0.00,BKN,,0.00,WeatherDisplay:10.37,2013-08-11 11:18:00,
2013-08-11 07:23:00,61.0,59.9,30.13,North,360,0.0,0.0,96,0.00,BKN,,0.00,WeatherDisplay:10.37,2013-08-11 11:23:00,
2013-08-11 07:28:00,61.2,60.1,30.13,North,360,0.0,0.0,96,0.00,BKN,,0.00,WeatherDisplay:10.37,2013-08-11 11:28:00,
2013-08-11 07:33:00,61.3,60.2,30.13,North,360,0.0,0.0,96,0.00,BKN,,0.00,WeatherDisplay:10.37,2013-08-11 11:33:00,
2013-08-11 07:39:00,61.5,60.1,30.13,North,360,0.0,0.0,95,0.00,BKN,,0.00,WeatherDisplay:10.37,2013-08-11 11:39:00,
2013-08-11 07:44:00,61.6,60.2,30.13,North,360,0.0,0.0,95,0.00,BKN,,0.00,WeatherDisplay:10.37,2013-08-11 11:44:00,
2013-08-11 07:49:00,61.8,60.4,30.13,North,360,0.0,0.0,95,0.00,BKN,,0.00,WeatherDisplay:10.37,2013-08-11 11:49:00,
2013-08-11 07:54:00,62.0,60.6,30.13,North,360,0.0,0.0,95,0.00,BKN,,0.00,WeatherDisplay:10.37,2013-08-11 11:54:00,
2013-08-11 08:00:00,62.2,60.8,30.13,North,360,0.0,0.0,95,0.00,BKN,,0.00,WeatherDisplay:10.37,2013-08-11 12:00:00,
2013-08-11 08:05:00,62.4,60.9,30.13,North,360,0.0,0.0,95,0.00,BKN,,0.00,WeatherDisplay:10.37,2013-08-11 12:05:00,
2013-08-11 08:11:00,62.6,61.1,30.14,North,360,0.0,0.0,95,0.00,BKN,,0.00,WeatherDisplay:10.37,2013-08-11 12:11:00,
2013-08-11 08:16:00,62.8,61.0,30.14,North,360,0.0,0.0,94,0.00,BKN,,0.00,WeatherDisplay:10.37,2013-08-11 12:16:00,
2013-08-11 08:22:00,63.0,61.2,30.14,North,360,0.0,0.0,94,0.00,BKN,,0.00,WeatherDisplay:10.37,2013-08-11 12:22:00,
2013-08-11 08:27:00,63.3,61.2,30.13,North,360,0.0,0.0,93,0.00,BKN,,0.00,WeatherDisplay:10.37,2013-08-11 12:27:00,
2013-08-11 08:32:00,63.4,60.7,30.14,North,360,0.0,0.0,91,0.00,BKN,,0.00,WeatherDisplay:10.37,2013-08-11 12:32:00,
2013-08-11 08:38:00,63.6,60.6,30.14,North,360,0.0,0.0,90,0.00,BKN,,0.00,WeatherDisplay:10.37,2013-08-11 12:38:00,
2013-08-11 08:44:00,63.7,60.7,30.14,North,360,0.0,0.0,90,0.00,BKN,,0.00,WeatherDisplay:10.37,2013-08-11 12:44:00,
2013-08-11 08:49:00,64.0,60.7,30.14,North,360,0.0,0.0,89,0.00,BKN,,0.00,WeatherDisplay:10.37,2013-08-11 12:49:00,
2013-08-11 08:54:00,64.3,60.3,30.14,North,360,0.0,0.0,87,0.00,BKN,,0.00,WeatherDisplay:10.37,2013-08-11 12:54:00,
2013-08-11 08:59:00,64.6,61.0,30.14,North,360,0.0,0.0,88,0.00,BKN,,0.00,WeatherDisplay:10.37,2013-08-11 12:59:00,
2013-08-11 09:04:00,65.0,60.7,30.14,North,360,0.0,0.0,86,0.00,BKN,,0.00,WeatherDisplay:10.37,2013-08-11 13:04:00,
2013-08-11 09:09:00,65.2,60.2,30.14,North,360,0.0,0.0,84,0.00,BKN,,0.00,WeatherDisplay:10.37,2013-08-11 13:09:00,
2013-08-11 09:14:00,65.4,59.8,30.14,North,360,0.0,0.0,82,0.00,BKN,,0.00,WeatherDisplay:10.37,2013-08-11 13:14:00,
2013-08-11 09:19:00,65.7,60.1,30.14,North,360,0.0,0.0,82,0.00,BKN,,0.00,WeatherDisplay:10.37,2013-08-11 13:19:00,
2013-08-11 09:24:00,66.0,59.3,30.14,North,360,0.0,0.0,79,0.00,BKN,,0.00,WeatherDisplay:10.37,2013-08-11 13:24:00,
2013-08-11 09:30:00,66.2,58.4,30.14,North,360,0.0,0.0,76,0.00,BKN,BKN,0.00,WeatherDisplay:10.37,2013-08-11 13:30:00,
2013-08-11 09:35:00,66.6,58.8,30.13,North,360,0.0,0.0,76,0.00,BKN,,0.00,WeatherDisplay:10.37,2013-08-11 13:35:00,
2013-08-11 09:41:00,66.8,59.0,30.13,North,360,0.0,0.0,76,0.00,BKN,,0.00,WeatherDisplay:10.37,2013-08-11 13:41:00,
2013-08-11 09:46:00,67.2,59.7,30.13,North,360,0.0,0.0,77,0.00,BKN,,0.00,WeatherDisplay:10.37,2013-08-11 13:46:00,
2013-08-11 09:51:00,67.5,59.3,30.13,North,360,0.0,0.0,75,0.00,BKN,,0.00,WeatherDisplay:10.37,2013-08-11 13:51:00,
2013-08-11 09:57:00,67.9,57.8,30.13,North,360,0.0,0.0,70,0.00,BKN,,0.00,WeatherDisplay:10.37,2013-08-11 13:57:00,
2013-08-11 10:02:00,68.3,59.3,30.13,North,360,0.0,0.0,73,0.00,BKN,,0.00,WeatherDisplay:10.37,2013-08-11 14:02:00,
2013-08-11 10:08:00,68.8,59.8,30.13,North,360,0.0,0.0,73,0.00,BKN,,0.00,WeatherDisplay:10.37,2013-08-11 14:08:00,
2013-08-11 10:13:00,69.3,58.7,30.13,North,360,0.0,0.0,69,0.00,BKN,,0.00,WeatherDisplay:10.37,2013-08-11 14:13:00,
2013-08-11 10:19:00,69.5,59.7,30.13,North,360,0.0,0.0,71,0.00,BKN,,0.00,WeatherDisplay:10.37,2013-08-11 14:19:00,
2013-08-11 10:24:00,69.7,59.1,30.13,North,360,0.0,0.0,69,0.00,BKN,,0.00,WeatherDisplay:10.37,2013-08-11 14:24:00,
2013-08-11 10:29:00,69.9,58.9,30.13,North,360,0.0,0.0,68,0.00,BKN,,0.00,WeatherDisplay:10.37,2013-08-11 14:29:00,
2013-08-11 10:34:00,70.0,59.0,30.14,North,360,0.0,0.0,68,0.00,BKN,,0.00,WeatherDisplay:10.37,2013-08-11 14:34:00,
2013-08-11 10:40:00,70.3,59.6,30.13,North,360,0.0,0.0,69,0.00,BKN,,0.00,WeatherDisplay:10.37,2013-08-11 14:40:00,
2013-08-11 10:45:00,70.5,58.5,30.13,North,360,0.0,0.0,66,0.00,BKN,BKN,0.00,WeatherDisplay:10.37,2013-08-11 14:45:00,
2013-08-11 10:50:00,70.7,60.4,30.13,North,360,0.0,0.0,70,0.00,BKN,BKN,0.00,WeatherDisplay:10.37,2013-08-11 14:50:00,
2013-08-11 10:57:00,70.9,59.8,30.13,North,360,0.0,0.0,68,0.00,BKN,,0.00,WeatherDisplay:10.37,2013-08-11 14:57:00,
2013-08-11 11:02:00,71.1,59.2,30.14,North,360,0.0,0.0,66,0.00,BKN,,0.00,WeatherDisplay:10.37,2013-08-11 15:02:00,
2013-08-11 11:07:00,71.3,60.6,30.13,North,360,0.0,0.0,69,0.00,BKN,,0.00,WeatherDisplay:10.37,2013-08-11 15:07:00,
2013-08-11 11:13:00,71.4,59.4,30.13,North,360,0.0,0.0,66,0.00,BKN,,0.00,WeatherDisplay:10.37,2013-08-11 15:13:00,
2013-08-11 11:18:00,71.6,59.2,30.13,North,360,0.0,0.0,65,0.00,BKN,,0.00,WeatherDisplay:10.37,2013-08-11 15:18:00,
2013-08-11 11:23:00,71.9,59.5,30.13,North,360,0.0,0.0,65,0.00,BKN,,0.00,WeatherDisplay:10.37,2013-08-11 15:23:00,
2013-08-11 11:28:00,72.2,59.3,30.13,North,360,0.0,0.0,64,0.00,BKN,,0.00,WeatherDisplay:10.37,2013-08-11 15:28:00,
2013-08-11 11:33:00,72.6,61.8,30.13,North,360,0.0,0.0,69,0.00,BKN,,0.00,WeatherDisplay:10.37,2013-08-11 15:33:00,
2013-08-11 11:38:00,72.9,59.1,30.13,North,360,0.0,0.0,62,0.00,BKN,,0.00,WeatherDisplay:10.37,2013-08-11 15:38:00,
2013-08-11 11:43:00,73.2,60.3,30.13,North,360,0.0,0.0,64,0.00,BKN,,0.00,WeatherDisplay:10.37,2013-08-11 15:43:00,
2013-08-11 11:48:00,73.5,58.3,30.13,North,360,0.0,0.0,59,0.00,BKN,,0.00,WeatherDisplay:10.37,2013-08-11 15:48:00,
2013-08-11 11:53:00,73.8,60.0,30.12,North,360,0.0,0.0,62,0.00,BKN,,0.00,WeatherDisplay:10.37,2013-08-11 15:53:00,
2013-08-11 11:58:00,74.0,59.7,30.12,North,360,0.0,0.0,61,0.00,BKN,,0.00,WeatherDisplay:10.37,2013-08-11 15:58:00,
2013-08-11 12:03:00,74.1,60.2,30.12,North,360,0.0,0.0,62,0.00,BKN,,0.00,WeatherDisplay:10.37,2013-08-11 16:03:00,
2013-08-11 12:09:00,74.4,61.0,30.12,North,360,0.0,0.0,63,0.00,BKN,,0.00,WeatherDisplay:10.37,2013-08-11 16:09:00,
2013-08-11 12:14:00,74.7,60.4,30.12,North,360,0.0,0.0,61,0.00,BKN,,0.00,WeatherDisplay:10.37,2013-08-11 16:14:00,
2013-08-11 12:20:00,74.9,59.6,30.12,North,360,0.0,0.0,59,0.00,BKN,,0.00,WeatherDisplay:10.37,2013-08-11 16:20:00,
2013-08-11 12:25:00,74.9,58.1,30.12,North,360,0.0,0.0,56,0.00,BKN,BKN,0.00,WeatherDisplay:10.37,2013-08-11 16:25:00,
2013-08-11 12:30:00,74.9,60.6,30.12,North,360,0.0,0.0,61,0.00,BKN,BKN,0.00,WeatherDisplay:10.37,2013-08-11 16:30:00,
2013-08-11 12:35:00,75.1,60.7,30.12,North,360,0.0,0.0,61,0.00,BKN,BKN,0.00,WeatherDisplay:10.37,2013-08-11 16:35:00,
2013-08-11 12:40:00,75.4,61.5,30.11,North,360,0.0,0.0,62,0.00,BKN,BKN,0.00,WeatherDisplay:10.37,2013-08-11 16:40:00,
2013-08-11 12:45:00,75.5,62.0,30.11,North,360,0.0,0.0,63,0.00,BKN,BKN,0.00,WeatherDisplay:10.37,2013-08-11 16:45:00,
2013-08-11 12:50:00,75.6,59.8,30.11,North,360,0.0,0.0,58,0.00,BKN,,0.00,WeatherDisplay:10.37,2013-08-11 16:50:00,
2013-08-11 12:55:00,75.9,61.0,30.11,North,360,0.0,0.0,60,0.00,BKN,BKN,0.00,WeatherDisplay:10.37,2013-08-11 16:55:00,
2013-08-11 13:00:00,75.8,60.9,30.11,North,360,0.0,0.0,60,0.00,BKN,BKN,0.00,WeatherDisplay:10.37,2013-08-11 17:00:00,
2013-08-11 13:05:00,75.5,61.6,30.11,North,360,0.0,0.0,62,0.00,BKN,BKN,0.00,WeatherDisplay:10.37,2013-08-11 17:05:00,
2013-08-11 13:10:00,75.5,61.6,30.10,North,360,0.0,0.0,62,0.00,BKN,BKN,0.00,WeatherDisplay:10.37,2013-08-11 17:10:00,
2013-08-11 13:15:00,75.6,61.2,30.10,North,360,0.0,0.0,61,0.00,BKN,,0.00,WeatherDisplay:10.37,2013-08-11 17:15:00,
2013-08-11 13:20:00,75.8,61.4,30.10,North,360,0.0,0.0,61,0.00,BKN,,0.00,WeatherDisplay:10.37,2013-08-11 17:20:00,
2013-08-11 13:25:00,76.1,63.0,30.10,North,360,0.0,0.0,64,0.00,BKN,,0.00,WeatherDisplay:10.37,2013-08-11 17:25:00,
2013-08-11 13:30:00,76.3,60.9,30.09,North,360,0.0,0.0,59,0.00,BKN,,0.00,WeatherDisplay:10.37,2013-08-11 17:30:00,
2013-08-11 13:36:00,76.7,60.8,30.09,North,360,0.0,0.0,58,0.00,BKN,,0.00,WeatherDisplay:10.37,2013-08-11 17:36:00,
2013-08-11 13:41:00,76.9,60.0,30.09,North,360,0.0,0.0,56,0.00,BKN,,0.00,WeatherDisplay:10.37,2013-08-11 17:41:00,
2013-08-11 13:46:00,77.0,60.6,30.09,North,360,0.0,0.0,57,0.00,BKN,,0.00,WeatherDisplay:10.37,2013-08-11 17:46:00,
2013-08-11 13:51:00,77.1,60.2,30.09,North,360,0.0,0.0,56,0.00,BKN,,0.00,WeatherDisplay:10.37,2013-08-11 17:51:00,
2013-08-11 13:56:00,77.4,60.5,30.09,North,360,0.0,0.0,56,0.00,BKN,,0.00,WeatherDisplay:10.37,2013-08-11 17:56:00,
2013-08-11 14:02:00,77.7,62.2,30.09,North,360,0.0,0.0,59,0.00,BKN,,0.00,WeatherDisplay:10.37,2013-08-11 18:02:00,
2013-08-11 14:07:00,77.8,60.3,30.09,North,360,0.0,0.0,55,0.00,BKN,,0.00,WeatherDisplay:10.37,2013-08-11 18:07:00,
2013-08-11 14:13:00,77.8,61.3,30.09,North,360,0.0,0.0,57,0.00,BKN,,0.00,WeatherDisplay:10.37,2013-08-11 18:13:00,
2013-08-11 14:18:00,77.9,59.9,30.09,North,360,0.0,0.0,54,0.00,BKN,,0.00,WeatherDisplay:10.37,2013-08-11 18:18:00,
2013-08-11 14:24:00,78.4,61.9,30.09,North,360,0.0,0.0,57,0.00,BKN,,0.00,WeatherDisplay:10.37,2013-08-11 18:24:00,
2013-08-11 14:29:00,78.8,61.3,30.09,North,360,0.0,0.0,55,0.00,BKN,,0.00,WeatherDisplay:10.37,2013-08-11 18:29:00,
2013-08-11 14:35:00,78.9,62.4,30.08,North,360,0.0,0.0,57,0.00,BKN,,0.00,WeatherDisplay:10.37,2013-08-11 18:35:00,
2013-08-11 14:40:00,78.8,61.8,30.08,North,360,0.0,0.0,56,0.00,BKN,BKN,0.00,WeatherDisplay:10.37,2013-08-11 18:40:00,
2013-08-11 14:45:00,78.8,62.8,30.08,North,360,0.0,0.0,58,0.00,BKN,BKN,0.00,WeatherDisplay:10.37,2013-08-11 18:45:00,
2013-08-11 14:50:00,78.8,61.8,30.08,North,360,0.0,0.0,56,0.00,BKN,,0.00,WeatherDisplay:10.37,2013-08-11 18:50:00,
2013-08-11 14:55:00,78.8,60.2,30.08,North,360,0.0,0.0,53,0.00,BKN,,0.00,WeatherDisplay:10.37,2013-08-11 18:55:00,
2013-08-11 15:00:00,78.3,61.8,30.08,North,360,0.0,0.0,57,0.00,BKN,BKN,0.00,WeatherDisplay:10.37,2013-08-11 19:00:00,
2013-08-11 15:05:00,78.3,61.8,30.07,North,360,0.0,0.0,57,0.00,BKN,BKN,0.00,WeatherDisplay:10.37,2013-08-11 19:05:00,
2013-08-11 15:11:00,78.5,62.5,30.07,North,360,0.0,0.0,58,0.00,BKN,,0.00,WeatherDisplay:10.37,2013-08-11 19:11:00,
2013-08-11 15:16:00,78.5,61.5,30.07,North,360,0.0,0.0,56,0.00,BKN,,0.00,WeatherDisplay:10.37,2013-08-11 19:16:00,
2013-08-11 15:21:00,78.5,61.0,30.07,North,360,0.0,0.0,55,0.00,BKN,,0.00,WeatherDisplay:10.37,2013-08-11 19:21:00,
2013-08-11 15:26:00,78.5,61.0,30.07,North,360,0.0,0.0,55,0.00,BKN,,0.00,WeatherDisplay:10.37,2013-08-11 19:26:00,
2013-08-11 15:31:00,78.9,61.4,30.07,North,360,0.0,0.0,55,0.00,BKN,,0.00,WeatherDisplay:10.37,2013-08-11 19:31:00,
2013-08-11 15:36:00,79.2,62.1,30.07,North,360,0.0,0.0,56,0.00,BKN,,0.00,WeatherDisplay:10.37,2013-08-11 19:36:00,
2013-08-11 15:42:00,79.5,63.9,30.07,North,360,0.0,0.0,59,0.00,BKN,,0.00,WeatherDisplay:10.37,2013-08-11 19:42:00,
2013-08-11 15:48:00,79.7,63.1,30.06,North,360,0.0,0.0,57,0.00,BKN,,0.00,WeatherDisplay:10.37,2013-08-11 19:48:00,
2013-08-11 15:53:00,79.6,64.5,30.06,North,360,0.0,0.0,60,0.00,BKN,,0.00,WeatherDisplay:10.37,2013-08-11 19:53:00,
2013-08-11 15:58:00,79.6,65.4,30.06,North,360,0.0,0.0,62,0.00,BKN,,0.00,WeatherDisplay:10.37,2013-08-11 19:58:00,
2013-08-11 16:03:00,79.7,65.1,30.06,North,360,0.0,0.0,61,0.00,BKN,,0.00,WeatherDisplay:10.37,2013-08-11 20:03:00,
2013-08-11 16:08:00,79.8,64.2,30.06,North,360,0.0,0.0,59,0.00,BKN,,0.00,WeatherDisplay:10.37,2013-08-11 20:08:00,
2013-08-11 16:13:00,79.9,63.3,30.06,North,360,0.0,0.0,57,0.00,BKN,,0.00,WeatherDisplay:10.37,2013-08-11 20:13:00,
2013-08-11 16:18:00,79.9,61.2,30.06,North,360,0.0,0.0,53,0.00,BKN,,0.00,WeatherDisplay:10.37,2013-08-11 20:18:00,
2013-08-11 16:24:00,80.3,63.7,30.06,North,360,0.0,0.0,57,0.00,BKN,,0.00,WeatherDisplay:10.37,2013-08-11 20:24:00,
2013-08-11 16:30:00,80.6,63.5,30.06,North,360,0.0,0.0,56,0.00,BKN,BKN,0.00,WeatherDisplay:10.37,2013-08-11 20:30:00,
2013-08-11 16:36:00,80.8,63.6,30.06,North,360,0.0,0.0,56,0.00,BKN,,0.00,WeatherDisplay:10.37,2013-08-11 20:36:00,
2013-08-11 16:41:00,80.6,62.4,30.05,North,360,0.0,0.0,54,0.00,BKN,,0.00,WeatherDisplay:10.37,2013-08-11 20:41:00,
2013-08-11 16:46:00,80.6,64.5,30.05,North,360,0.0,0.0,58,0.00,BKN,,0.00,WeatherDisplay:10.37,2013-08-11 20:46:00,
2013-08-11 16:51:00,80.7,63.0,30.05,North,360,0.0,0.0,55,0.00,BKN,,0.00,WeatherDisplay:10.37,2013-08-11 20:51:00,
2013-08-11 16:56:00,80.9,65.2,30.05,North,360,0.0,0.0,59,0.00,BKN,,0.00,WeatherDisplay:10.37,2013-08-11 20:56:00,
2013-08-11 17:01:00,80.6,62.9,30.05,North,360,0.0,0.0,55,0.00,BKN,,0.00,WeatherDisplay:10.37,2013-08-11 21:01:00,
2013-08-11 17:06:00,80.3,63.7,30.05,North,360,0.0,0.0,57,0.00,SCT,,0.00,WeatherDisplay:10.37,2013-08-11 21:06:00,
2013-08-11 17:11:00,80.0,62.9,30.05,North,360,0.0,0.0,56,0.00,SCT,,0.00,WeatherDisplay:10.37,2013-08-11 21:11:00,
2013-08-11 17:16:00,80.3,62.7,30.04,North,360,0.0,0.0,55,0.00,SCT,,0.00,WeatherDisplay:10.37,2013-08-11 21:16:00,
2013-08-11 17:22:00,80.0,62.4,30.05,North,360,0.0,0.0,55,0.00,SCT,,0.00,WeatherDisplay:10.37,2013-08-11 21:22:00,
2013-08-11 17:28:00,79.6,65.4,30.05,North,360,0.0,0.0,62,0.00,SCT,,0.00,WeatherDisplay:10.37,2013-08-11 21:28:00,
2013-08-11 17:33:00,79.2,65.1,30.04,North,360,0.0,0.0,62,0.00,SCT,,0.00,WeatherDisplay:10.37,2013-08-11 21:33:00,
2013-08-11 17:39:00,78.8,66.0,30.04,North,360,0.0,0.0,65,0.00,SCT,,0.00,WeatherDisplay:10.37,2013-08-11 21:39:00,
2013-08-11 17:44:00,78.4,66.1,30.04,North,360,0.0,0.0,66,0.00,SCT,,0.00,WeatherDisplay:10.37,2013-08-11 21:44:00,
2013-08-11 17:50:00,78.0,63.0,30.04,North,360,0.0,0.0,60,0.00,SCT,,0.00,WeatherDisplay:10.37,2013-08-11 21:50:00,
2013-08-11 17:55:00,77.8,64.2,30.04,North,360,0.0,0.0,63,0.00,SCT,,0.00,WeatherDisplay:10.37,2013-08-11 21:55:00,
2013-08-11 18:01:00,77.7,63.2,30.04,North,360,0.0,0.0,61,0.00,SCT,,0.00,WeatherDisplay:10.37,2013-08-11 22:01:00,
2013-08-11 18:06:00,77.5,63.5,30.04,North,360,0.0,0.0,62,0.00,SCT,,0.00,WeatherDisplay:10.37,2013-08-11 22:06:00,
2013-08-11 18:11:00,77.4,65.1,30.04,North,360,0.0,0.0,66,0.00,SCT,,0.00,WeatherDisplay:10.37,2013-08-11 22:11:00,
2013-08-11 18:16:00,77.2,64.5,30.04,North,360,0.0,0.0,65,0.00,SCT,,0.00,WeatherDisplay:10.37,2013-08-11 22:16:00,
2013-08-11 18:21:00,76.9,64.7,30.04,North,360,0.0,0.0,66,0.00,SCT,,0.00,WeatherDisplay:10.37,2013-08-11 22:21:00,
2013-08-11 18:26:00,76.6,63.5,30.03,North,360,0.0,0.0,64,0.00,SCT,,0.00,WeatherDisplay:10.37,2013-08-11 22:26:00,
2013-08-11 18:32:00,76.4,63.8,30.03,North,360,0.0,0.0,65,0.00,SCT,,0.00,WeatherDisplay:10.37,2013-08-11 22:32:00,
2013-08-11 18:37:00,76.2,64.0,30.03,North,360,0.0,0.0,66,0.00,SCT,,0.00,WeatherDisplay:10.37,2013-08-11 22:37:00,
2013-08-11 18:42:00,76.2,66.1,30.03,North,360,0.0,0.0,71,0.00,SCT,,0.00,WeatherDisplay:10.37,2013-08-11 22:42:00,
2013-08-11 18:47:00,75.9,64.2,30.03,North,360,0.0,0.0,67,0.00,SCT,,0.00,WeatherDisplay:10.37,2013-08-11 22:47:00,
2013-08-11 18:52:00,75.7,62.7,30.03,North,360,0.0,0.0,64,0.00,SCT,,0.00,WeatherDisplay:10.37,2013-08-11 22:52:00,
2013-08-11 18:58:00,75.6,62.6,30.03,North,360,0.0,0.0,64,0.00,SCT,,0.00,WeatherDisplay:10.37,2013-08-11 22:58:00,
2013-08-11 19:04:00,75.6,63.9,30.03,North,360,0.0,0.0,67,0.00,FEW,,0.00,WeatherDisplay:10.37,2013-08-11 23:04:00,
2013-08-11 19:09:00,75.5,64.6,30.03,North,360,0.0,0.0,69,0.00,FEW,,0.00,WeatherDisplay:10.37,2013-08-11 23:09:00,
2013-08-11 19:14:00,75.1,63.4,30.03,North,360,0.0,0.0,67,0.00,FEW,,0.00,WeatherDisplay:10.37,2013-08-11 23:14:00,
2013-08-11 19:19:00,74.9,64.9,30.03,North,360,0.0,0.0,71,0.00,FEW,,0.00,WeatherDisplay:10.37,2013-08-11 23:19:00,
2013-08-11 19:25:00,74.6,65.0,30.03,North,360,0.0,0.0,72,0.00,FEW,,0.00,WeatherDisplay:10.37,2013-08-11 23:25:00,
2013-08-11 19:30:00,74.2,65.0,30.03,North,360,0.0,0.0,73,0.00,FEW,,0.00,WeatherDisplay:10.37,2013-08-11 23:30:00,
2013-08-11 19:35:00,73.8,64.2,30.03,North,360,0.0,0.0,72,0.00,FEW,,0.00,WeatherDisplay:10.37,2013-08-11 23:35:00,
2013-08-11 19:40:00,73.4,63.8,30.03,North,360,0.0,0.0,72,0.00,FEW,,0.00,WeatherDisplay:10.37,2013-08-11 23:40:00,
2013-08-11 19:46:00,73.0,64.6,30.03,North,360,0.0,0.0,75,0.00,FEW,,0.00,WeatherDisplay:10.37,2013-08-11 23:46:00,
2013-08-11 19:51:00,72.6,64.6,30.03,North,360,0.0,0.0,76,0.00,FEW,,0.00,WeatherDisplay:10.37,2013-08-11 23:51:00,
2013-08-11 19:56:00,72.2,64.2,30.03,North,360,0.0,0.0,76,0.00,FEW,,0.00,WeatherDisplay:10.37,2013-08-11 23:56:00,
2013-08-11 20:01:00,71.9,64.3,30.03,North,360,0.0,0.0,77,0.00,FEW,,0.00,WeatherDisplay:10.37,2013-08-12 00:01:00,
2013-08-11 20:06:00,71.7,65.2,30.03,North,360,0.0,0.0,80,0.00,SCT,,0.00,WeatherDisplay:10.37,2013-08-12 00:06:00,
2013-08-11 20:11:00,71.5,65.4,30.03,North,360,0.0,0.0,81,0.00,SCT,,0.00,WeatherDisplay:10.37,2013-08-12 00:11:00,
2013-08-11 20:16:00,71.2,65.8,30.03,North,360,0.0,0.0,83,0.00,SCT,,0.00,WeatherDisplay:10.37,2013-08-12 00:16:00,
2013-08-11 20:21:00,70.9,65.8,30.03,North,360,0.0,0.0,84,0.00,SCT,,0.00,WeatherDisplay:10.37,2013-08-12 00:21:00,
2013-08-11 20:26:00,70.6,65.5,30.03,North,360,0.0,0.0,84,0.00,SCT,,0.00,WeatherDisplay:10.37,2013-08-12 00:26:00,
2013-08-11 20:31:00,70.2,64.8,30.04,North,360,0.0,0.0,83,0.00,SCT,,0.00,WeatherDisplay:10.37,2013-08-12 00:31:00,
2013-08-11 20:36:00,69.9,64.5,30.04,North,360,0.0,0.0,83,0.00,SCT,,0.00,WeatherDisplay:10.37,2013-08-12 00:36:00,
2013-08-11 20:41:00,69.6,64.5,30.04,North,360,0.0,0.0,84,0.00,SCT,,0.00,WeatherDisplay:10.37,2013-08-12 00:41:00,
2013-08-11 20:47:00,69.2,64.2,30.04,North,360,0.0,0.0,84,0.00,SCT,,0.00,WeatherDisplay:10.37,2013-08-12 00:47:00,
2013-08-11 20:52:00,68.9,64.2,30.05,North,360,0.0,0.0,85,0.00,SCT,,0.00,WeatherDisplay:10.37,2013-08-12 00:52:00,
2013-08-11 20:57:00,68.6,63.9,30.05,North,360,0.0,0.0,85,0.00,SCT,,0.00,WeatherDisplay:10.37,2013-08-12 00:57:00,
2013-08-11 21:02:00,68.2,63.9,30.05,North,360,0.0,0.0,86,0.00,SCT,,0.00,WeatherDisplay:10.37,2013-08-12 01:02:00,
2013-08-11 21:08:00,67.9,63.9,30.05,North,360,0.0,0.0,87,0.00,SCT,,0.00,WeatherDisplay:10.37,2013-08-12 01:08:00,
2013-08-11 21:13:00,67.5,63.5,30.05,North,360,0.0,0.0,87,0.00,SCT,,0.00,WeatherDisplay:10.37,2013-08-12 01:13:00,
2013-08-11 21:18:00,67.2,63.5,30.05,North,360,0.0,0.0,88,0.00,SCT,,0.00,WeatherDisplay:10.37,2013-08-12 01:18:00,
2013-08-11 21:23:00,67.0,63.3,30.05,North,360,0.0,0.0,88,0.00,SCT,,0.00,WeatherDisplay:10.37,2013-08-12 01:23:00,
2013-08-11 21:29:00,66.7,63.4,30.05,North,360,0.0,0.0,89,0.00,SCT,,0.00,WeatherDisplay:10.37,2013-08-12 01:29:00,
2013-08-11 21:34:00,66.5,63.5,30.05,North,360,0.0,0.0,90,0.00,SCT,,0.00,WeatherDisplay:10.37,2013-08-12 01:34:00,
2013-08-11 21:39:00,66.3,63.0,30.05,North,360,0.0,0.0,89,0.00,SCT,,0.00,WeatherDisplay:10.37,2013-08-12 01:39:00,
2013-08-11 21:45:00,66.1,62.8,30.05,North,360,0.0,0.0,89,0.00,SCT,,0.00,WeatherDisplay:10.37,2013-08-12 01:45:00,
2013-08-11 21:50:00,66.0,62.7,30.05,North,360,0.0,0.0,89,0.00,SCT,,0.00,WeatherDisplay:10.37,2013-08-12 01:50:00,
2013-08-11 21:55:00,65.8,62.4,30.05,North,360,0.0,0.0,89,0.00,SCT,SCT,0.00,WeatherDisplay:10.37,2013-08-12 01:55:00,
2013-08-11 22:00:00,65.5,62.5,30.05,North,360,0.0,0.0,90,0.00,SCT,SCT,0.00,WeatherDisplay:10.37,2013-08-12 02:00:00,
2013-08-11 22:05:00,65.3,62.6,30.05,North,360,0.0,0.0,91,0.00,SCT,SCT,0.00,WeatherDisplay:10.37,2013-08-12 02:05:00,
2013-08-11 22:10:00,65.2,62.5,30.05,North,360,0.0,0.0,91,0.00,SCT,SCT,0.00,WeatherDisplay:10.37,2013-08-12 02:10:00,
2013-08-11 22:16:00,65.0,62.3,30.05,North,360,0.0,0.0,91,0.00,SCT,,0.00,WeatherDisplay:10.37,2013-08-12 02:16:00,
2013-08-11 22:21:00,64.9,62.8,30.06,North,360,0.0,0.0,93,0.00,SCT,,0.00,WeatherDisplay:10.37,2013-08-12 02:21:00,
2013-08-11 22:26:00,64.8,62.7,30.06,North,360,0.0,0.0,93,0.00,SCT,,0.00,WeatherDisplay:10.37,2013-08-12 02:26:00,
2013-08-11 22:31:00,64.7,62.6,30.06,North,360,0.0,0.0,93,0.00,SCT,,0.00,WeatherDisplay:10.37,2013-08-12 02:31:00,
2013-08-11 22:37:00,64.5,62.4,30.06,North,360,0.0,0.0,93,0.00,SCT,,0.00,WeatherDisplay:10.37,2013-08-12 02:37:00,
2013-08-11 22:42:00,64.4,62.3,30.06,North,360,0.0,0.0,93,0.00,SCT,,0.00,WeatherDisplay:10.37,2013-08-12 02:42:00,
2013-08-11 22:47:00,64.3,62.5,30.06,North,360,0.0,0.0,94,0.00,SCT,,0.00,WeatherDisplay:10.37,2013-08-12 02:47:00,
2013-08-11 22:53:00,64.2,62.4,30.06,North,360,0.0,0.0,94,0.00,SCT,,0.00,WeatherDisplay:10.37,2013-08-12 02:53:00,
2013-08-11 22:58:00,64.0,62.2,30.06,North,360,0.0,0.0,94,0.00,SCT,,0.00,WeatherDisplay:10.37,2013-08-12 02:58:00,
2013-08-11 23:04:00,63.9,62.4,30.06,North,360,0.0,0.0,95,0.00,SCT,,0.00,WeatherDisplay:10.37,2013-08-12 03:04:00,
2013-08-11 23:09:00,63.9,62.4,30.06,North,360,0.0,0.0,95,0.00,SCT,,0.00,WeatherDisplay:10.37,2013-08-12 03:09:00,
2013-08-11 23:14:00,63.8,62.3,30.06,North,360,0.0,0.0,95,0.00,SCT,,0.00,WeatherDisplay:10.37,2013-08-12 03:14:00,
2013-08-11 23:19:00,63.8,62.6,30.05,North,360,0.0,0.0,96,0.00,SCT,,0.00,WeatherDisplay:10.37,2013-08-12 03:19:00,
2013-08-11 23:24:00,63.8,62.6,30.05,North,360,0.0,0.0,96,0.00,SCT,,0.00,WeatherDisplay:10.37,2013-08-12 03:24:00,
2013-08-11 23:29:00,63.8,62.6,30.05,North,360,0.0,0.0,96,0.00,SCT,,0.00,WeatherDisplay:10.37,2013-08-12 03:29:00,
2013-08-11 23:35:00,63.7,62.5,30.05,North,360,0.0,0.0,96,0.00,SCT,,0.00,WeatherDisplay:10.37,2013-08-12 03:35:00,
2013-08-11 23:40:00,63.7,62.5,30.06,North,360,0.0,0.0,96,0.00,SCT,SCT,0.00,WeatherDisplay:10.37,2013-08-12 03:40:00,
2013-08-11 23:45:00,63.6,62.4,30.06,North,360,0.0,0.0,96,0.00,SCT,,0.00,WeatherDisplay:10.37,2013-08-12 03:45:00,
2013-08-11 23:50:00,63.5,62.3,30.07,North,360,0.0,0.0,96,0.00,SCT,SCT,0.00,WeatherDisplay:10.37,2013-08-12 03:50:00,
2013-08-11 23:55:00,63.4,62.2,30.07,North,360,0.0,0.0,96,0.00,SCT,SCT,0.00,WeatherDisplay:10.37,2013-08-12 03:55:00,